EW0997 Weather Reports


time (UTC)temp
C
wind
direction
speed
KPH
gust
KPH
rain 1hr
cm
rain 24hr
cm
rain mn
cm
humidity
%
barometer
mb
20260503053707 14 157 4.8 8.0 0.00 0.71 0.28 94 1010.1
20260503053206 14 143 1.6 4.8 0.00 0.71 0.28 94 1010.1
20260503052705 14 157 1.6 4.8 0.00 0.71 0.28 94 1010.1
20260503051706 14 164 0.0 3.2 0.00 0.71 0.28 94 1010.2
20260503051206 13 164 3.2 4.8 0.00 0.71 0.28 94 1010.1
20260503050706 13 162 3.2 4.8 0.00 0.71 0.28 94 1010.2
20260503050206 13 139 3.2 4.8 0.00 0.71 0.28 94 1010.1
20260503045706 13 145 3.2 4.8 0.00 0.71 0.28 94 1010.1
20260503045206 13 149 1.6 4.8 0.00 0.71 0.28 94 1010.2
20260503044706 13 148 0.0 4.8 0.00 0.71 0.28 94 1010.2
20260503044206 13 167 1.6 4.8 0.00 0.71 0.28 94 1010.1
20260503043706 13 167 3.2 4.8 0.03 0.71 0.28 94 1010.2
20260503043205 13 156 3.2 4.8 0.03 0.71 0.28 94 1010.2
20260503042206 13 142 3.2 4.8 0.03 0.71 0.28 94 1010.1
20260503041705 13 142 4.8 4.8 0.05 0.71 0.28 94 1010.1
20260503040705 13 136 3.2 8.0 0.08 0.71 0.28 94 1010.2
20260503040206 13 141 4.8 11.3 0.08 0.71 0.28 94 1010.2
20260503035205 13 157 3.2 9.7 0.10 0.71 0.28 94 1010.3
20260503034706 13 117 6.4 11.3 0.10 0.71 0.28 94 1010.1
20260503034205 13 130 3.2 9.7 0.10 0.71 0.28 94 1010.2
20260503033705 14 140 4.8 11.3 0.08 0.69 0.25 94 1010.3
20260503033206 14 127 3.2 4.8 0.08 0.69 0.25 94 1010.4
20260503032705 14 133 3.2 4.8 0.08 0.69 0.25 94 1010.5
20260503031705 14 134 3.2 4.8 0.05 0.64 0.23 94 1010.9
20260503031206 14 136 4.8 8.0 0.05 0.64 0.23 94 1011.0
20260503030205 14 159 4.8 8.0 0.03 0.61 0.20 93 1011.1
20260503025705 14 159 4.8 4.8 0.00 0.61 0.18 93 1011.2
20260503025206 14 175 4.8 12.9 0.00 0.61 0.18 93 1011.3
20260503024706 14 163 8.0 12.9 0.00 0.61 0.18 94 1011.3
20260503023705 14 178 4.8 9.7 0.00 0.61 0.18 93 1011.3
20260503022206 14 164 8.0 16.1 0.00 0.61 0.18 93 1011.3
20260503021205 14 151 4.8 9.7 0.00 0.61 0.18 93 1011.1
20260503020705 14 164 4.8 9.7 0.00 0.61 0.18 93 1011.2
20260503015705 13 161 4.8 8.0 0.00 0.61 0.18 93 1011.2
20260503015205 13 170 3.2 8.0 0.00 0.61 0.18 93 1011.3
20260503013205 13 147 3.2 4.8 0.00 0.61 0.18 93 1011.2
20260503012705 13 153 3.2 4.8 0.00 0.61 0.18 93 1011.1
20260503012205 13 147 3.2 4.8 0.00 0.61 0.18 92 1011.1
20260503011705 13 145 3.2 4.8 0.00 0.61 0.18 92 1011.1
20260503011205 13 118 3.2 4.8 0.00 0.61 0.18 92 1011.1
20260503010705 13 141 3.2 9.7 0.00 0.61 0.18 92 1011.2
20260503010205 13 122 4.8 9.7 0.00 0.61 0.18 92 1011.3
20260503005705 13 134 3.2 9.7 0.00 0.61 0.18 92 1011.3
20260503005205 13 128 4.8 12.9 0.00 0.61 0.18 92 1011.3
20260503004205 14 109 8.0 12.9 0.00 0.61 0.18 92 1011.3
20260503003705 14 116 9.7 14.5 0.00 0.61 0.18 92 1011.3
20260503002705 14 115 8.0 12.9 0.00 0.61 0.18 92 1011.3
20260503002205 14 108 8.0 14.5 0.00 0.61 0.18 93 1011.4
20260503001705 14 111 6.4 12.9 0.00 0.61 0.18 92 1011.4
20260503001205 13 113 8.0 12.9 0.00 0.61 0.18 92 1011.5
20260503000705 13 107 8.0 12.9 0.00 0.61 0.18 92 1011.6
20260503000205 13 110 8.0 12.9 0.00 0.61 0.18 92 1011.7
20260502235705 13 116 4.8 9.7 0.00 0.61 0.18 93 1012.0
20260502234205 13 117 4.8 11.3 0.00 0.61 0.18 92 1012.1
20260502233706 13 136 4.8 9.7 0.00 0.61 0.18 92 1012.1
20260502233205 13 135 4.8 11.3 0.00 0.61 0.18 92 1012.0
20260502232705 13 117 8.0 11.3 0.03 0.61 0.18 92 1012.1
20260502232206 13 122 8.0 14.5 0.03 0.61 0.18 92 1012.1
20260502231705 13 117 8.0 12.9 0.05 0.61 0.18 92 1012.0
20260502231205 13 131 6.4 12.9 0.08 0.61 0.18 92 1012.3
20260502230205 13 128 6.4 11.3 0.15 0.61 0.18 92 1012.1
20260502225705 13 121 8.0 14.5 0.20 0.61 0.18 92 1012.1
20260502225205 13 115 8.0 12.9 0.23 0.61 0.18 92 1012.1
20260502224705 13 110 6.4 14.5 0.25 0.61 0.18 93 1012.1
20260502224205 13 103 4.8 14.5 0.30 0.61 0.18 92 1012.2
20260502223705 13 104 8.0 16.1 0.36 0.61 0.18 92 1012.2
20260502223205 13 117 9.7 16.1 0.41 0.61 0.18 92 1012.3
20260502222705 13 108 8.0 14.5 0.08 0.58 0.15 92 1012.3
20260502222205 13 90 4.8 14.5 0.15 0.58 0.15 91 1012.3
20260502221706 13 101 4.8 14.5 0.13 0.53 0.13 91 1012.4
20260502221205 13 94 9.7 19.3 0.10 0.51 0.10 90 1012.4
20260502220706 13 104 11.3 19.3 0.05 0.48 0.05 90 1012.9
20260502220205 13 96 8.0 16.1 0.03 0.43 0.03 89 1012.9
20260502215705 13 103 8.0 16.1 0.41 0.41 0.41 89 1013.0
20260502215204 13 110 4.8 9.7 0.38 0.38 0.38 88 1013.3
20260502214205 14 103 3.2 9.7 0.30 0.30 0.30 85 1013.8
20260502213705 14 102 3.2 4.8 0.25 0.25 0.25 83 1014.1
20260502213205 15 171 4.8 14.5 0.20 0.20 0.20 79 1014.5
20260502212705 15 185 11.3 19.3 0.08 0.08 0.08 75 1014.9
20260502212205 15 186 8.0 14.5 0.03 0.03 0.03 74 1014.9
20260502211705 15 217 11.3 22.5 0.00 0.00 0.00 74 1014.3
20260502210704 15 92 1.6 4.8 0.00 0.00 0.00 73 1012.7
20260502210204 15 81 1.6 4.8 0.00 0.00 0.00 73 1012.7
20260502205705 15 74 4.8 11.3 0.00 0.00 0.00 74 1012.7
20260502204704 15 64 8.0 14.5 0.00 0.00 0.00 75 1012.8
20260502203705 15 79 6.4 19.3 0.00 0.00 0.00 75 1013.1
20260502203205 15 67 1.6 4.8 0.00 0.00 0.00 74 1013.1
20260502202204 15 75 4.8 12.9 0.00 0.00 0.00 74 1013.2
20260502201705 15 115 3.2 4.8 0.00 0.00 0.00 73 1013.3
20260502201204 15 117 1.6 4.8 0.00 0.00 0.00 73 1013.3
20260502200705 15 65 3.2 4.8 0.00 0.00 0.00 74 1013.4
20260502200206 15 57 3.2 4.8 0.00 0.00 0.00 73 1013.3
20260502195705 15 62 3.2 4.8 0.00 0.00 0.00 72 1013.4
20260502194707 15 18 1.6 4.8 0.00 0.00 0.00 73 1013.4
20260502194208 15 15 1.6 4.8 0.00 0.00 0.00 75 1013.5
20260502193706 15 20 1.6 4.8 0.00 0.00 0.00 76 1013.4
20260502193206 15 69 1.6 4.8 0.00 0.00 0.00 77 1013.6
20260502192705 15 64 3.2 4.8 0.00 0.00 0.00 76 1013.5
20260502192205 15 63 0.0 3.2 0.00 0.00 0.00 75 1013.6
20260502191704 15 63 1.6 4.8 0.00 0.00 0.00 74 1013.6
20260502191207 15 59 1.6 4.8 0.00 0.00 0.00 73 1013.6
20260502190705 15 42 1.6 3.2 0.00 0.00 0.00 71 1013.6
20260502190205 15 38 1.6 3.2 0.00 0.00 0.00 70 1013.5
20260502184705 16 342 3.2 4.8 0.00 0.00 0.00 66 1013.6
20260502183705 16 349 1.6 4.8 0.00 0.00 0.00 66 1013.6
20260502183205 16 349 3.2 8.0 0.00 0.00 0.00 66 1013.7
20260502182205 17 351 3.2 4.8 0.00 0.00 0.00 65 1013.7
20260502181704 17 336 4.8 8.0 0.00 0.00 0.00 64 1013.7
20260502181205 17 333 4.8 8.0 0.00 0.00 0.00 62 1013.6
20260502180705 17 333 4.8 8.0 0.00 0.00 0.00 61 1013.6
20260502170204 19 359 4.8 8.0 0.00 0.00 0.00 60 1014.3
20260502164205 20 343 9.7 14.5 0.00 0.00 0.00 58 1014.6
20260502163704 20 353 9.7 14.5 0.00 0.00 0.00 57 1014.7
20260502163204 20 334 3.2 9.7 0.00 0.00 0.00 57 1014.8
20260502162704 20 351 8.0 12.9 0.00 0.00 0.00 56 1014.9
20260502161705 20 355 4.8 11.3 0.00 0.00 0.00 59 1014.9
20260502161204 21 0 6.4 12.9 0.00 0.00 0.00 56 1015.0
20260502160704 21 337 3.2 11.3 0.00 0.00 0.00 57 1015.0
20260502152207 21 358 8.0 14.5 0.00 0.00 0.00 55 1015.2
20260502151707 22 358 8.0 14.5 0.00 0.00 0.00 55 1015.2
20260502151207 22 348 9.7 19.3 0.00 0.00 0.00 55 1015.2
20260502150707 22 327 6.4 14.5 0.00 0.00 0.00 56 1015.3
20260502150207 23 336 3.2 9.7 0.00 0.00 0.00 54 1015.3
20260502130707 21 239 4.8 12.9 0.00 0.00 0.00 64 1016.5
20260502130207 21 282 3.2 12.9 0.00 0.00 0.00 64 1016.6
20260502123706 21 253 3.2 9.7 0.00 0.00 0.00 68 1016.8
20260502123207 21 247 3.2 11.3 0.00 0.00 0.00 67 1016.8
20260502122206 20 259 4.8 11.3 0.00 0.00 0.00 71 1016.9
20260502121708 20 234 3.2 8.0 0.00 0.00 0.00 72 1017.0
20260502121206 20 231 6.4 12.9 0.00 0.00 0.00 72 1017.0
20260502120707 20 234 8.0 16.1 0.00 0.00 0.00 72 1017.1
20260502120207 20 223 8.0 12.9 0.00 0.00 0.00 72 1017.1
20260502115706 20 241 4.8 9.7 0.00 0.00 0.00 73 1017.2
20260502115207 20 237 4.8 11.3 0.00 0.00 0.00 72 1017.2
20260502114207 20 224 9.7 19.3 0.00 0.00 0.00 73 1017.2
20260502113706 19 233 6.4 14.5 0.00 0.00 0.00 75 1017.3
20260502113207 19 247 8.0 12.9 0.00 0.00 0.00 75 1017.3
20260502112706 19 232 6.4 19.3 0.00 0.00 0.00 76 1017.4
20260502112206 19 230 4.8 11.3 0.00 0.00 0.00 77 1017.4
20260502111706 19 222 4.8 16.1 0.00 0.00 0.00 77 1017.4
20260502110707 19 222 3.2 8.0 0.00 0.00 0.00 77 1017.4
20260502105706 19 251 6.4 16.1 0.00 0.00 0.00 76 1017.5
20260502105206 19 232 8.0 19.3 0.00 0.00 0.00 74 1017.5
20260502104707 19 207 8.0 12.9 0.00 0.00 0.00 74 1017.5
20260502104206 19 221 8.0 19.3 0.00 0.00 0.00 75 1017.5
20260502103706 19 241 4.8 12.9 0.00 0.00 0.00 77 1017.5
20260502103206 19 217 8.0 14.5 0.00 0.00 0.00 76 1017.5
20260502102206 19 264 3.2 11.3 0.00 0.00 0.00 76 1017.5
20260502101707 19 261 3.2 14.5 0.00 0.00 0.00 76 1017.5
20260502101206 20 245 6.4 12.9 0.00 0.00 0.00 74 1017.6
20260502100707 20 217 4.8 12.9 0.00 0.00 0.00 76 1017.7
20260502100206 19 216 8.0 14.5 0.00 0.00 0.00 76 1017.7
20260502071206 15 208 0.0 0.0 0.00 0.00 0.00 83 1017.7
20260502070706 15 208 0.0 0.0 0.00 0.00 0.00 81 1018.0
20260502070207 15 208 0.0 1.6 0.00 0.00 0.00 80 1018.0
20260502065706 15 208 3.2 4.8 0.00 0.00 0.00 78 1018.1
20260502065206 15 226 1.6 8.0 0.00 0.00 0.00 78 1018.0
20260502064706 15 240 4.8 9.7 0.00 0.00 0.00 77 1018.0
20260502064206 15 211 1.6 4.8 0.00 0.00 0.00 77 1018.0
20260502063706 14 238 1.6 3.2 0.00 0.00 0.00 77 1018.0
20260502062705 14 227 3.2 8.0 0.00 0.00 0.00 76 1018.0
20260502062206 14 200 1.6 4.8 0.00 0.00 0.00 76 1017.9
20260502061706 13 192 3.2 4.8 0.00 0.00 0.00 76 1018.0
20260502061205 13 188 3.2 4.8 0.00 0.00 0.00 75 1017.9
20260502060705 13 199 4.8 9.7 0.00 0.00 0.00 75 1017.9
20260502060206 13 217 3.2 4.8 0.00 0.00 0.00 75 1017.9
20260502055705 13 223 3.2 4.8 0.00 0.00 0.00 75 1017.8
20260502055206 13 225 1.6 4.8 0.00 0.00 0.00 74 1017.8
20260502054706 13 231 3.2 4.8 0.00 0.00 0.00 75 1017.7
20260502054206 13 237 0.0 3.2 0.00 0.00 0.00 75 1017.8